Погода в Успено-Раевке

Россия / Курская область     51°49′44″N   37°55′04″E
темп.,
°C
ветер,
м/с
пор.,
м/с
влажн.,
%
обл.,
%
осадки,
мм/ч
давл.,
гПа
погр.,
м
28 сентября, вт
вт2800:00+9с4885100 0.2 1021447
03:00+8с4793100 0.2 1021355
06:00+8ссв479189 0.1 1022432
09:00+8св4788100 0.3 1023565
12:00+9св667493 0.1 1025917
15:00+8св5674100 0.3 1026918
18:00+7св4783100 0.1 1028899
21:00+7всв5880100 0.1 1030720
29 сентября, ср
ср2900:00+6св4778100 0.0 1031578
03:00+6св477790 0.0 1032522
06:00+3св37845 0.0 1033169
09:00+6св57685 0.0 1033456
12:00+9св56496 0.0 10331093
15:00+11св45435 0.0 10321279
18:00+8ссв35560 0.0 103291
21:00+6св36645 0.0 1033119
30 сентября, чт
чт3000:00+5св2368100 0.0 103449
03:00+4св227061 0.0 103426
06:00+3ссв22755 0.0 103534
09:00+7св34635 0.0 1035278
12:00+11всв33495 0.0 10351045
15:00+12всв23465 0.0 10341314
18:00+9св22585 0.0 103419
21:00+7св22655 0.0 103517
1 октября, пт
пт100:00+6всв22695 0.0 103611
03:00+6всв11715 0.0 103610
06:00+5св117411 0.0 103610
09:00+8всв226212 0.0 1036216
12:00+12в22505 0.0 1036969
15:00+13в11464 0.0 10351192
18:00+11всв22560 0.0 103410
21:00+9вюв22620 0.0 103513
2 октября, сб
сб200:00+8ююв11644 0.0 103510
03:00+7юв11674 0.0 103510
06:00+6юв11695 0.0 103510
09:00+10вюв22615 0.0 1035195
12:00+14юв23535 0.0 1034982
15:00+15юв234813 0.0 10331370
18:00+12юв226118 0.0 103320
21:00+11юв356285 0.0 1033108